GFSMW_con_3kmhel_000.txt.gz
Helicity
76 78 170 268 298 241 180 149 124 88 135 118 118 129 149 158 172 187 204 205 201 178 182 174 161 178 189 156 144 138 104 89 57 56 33 56 67 53 54 24 53 81 113
83 77 88 98 132 133 112 91 91 67 91 138 145 171 203 193 201 182 207 231 252 262 252 235 216 226 252 251 240 218 207 165 125 77 39 27 23 48 44 58 55 41 54
124 107 95 99 117 128 128 91 105 89 96 105 136 167 235 251 251 239 255 272 307 322 316 293 293 267 280 312 332 374 325 266 218 186 106 28 22 -14 -11 9 26 23 36
118 95 64 99 103 94 101 84 123 111 91 135 186 240 271 292 297 319 346 304 332 338 359 330 325 322 342 419 497 483 440 332 275 255 172 137 79 27 -26 -11 2 -5 -5
93 85 89 116 91 77 88 105 140 127 113 148 194 266 286 337 319 336 338 336 376 415 395 405 459 515 556 532 452 337 405 335 293 319 139 112 76 47 55 6 -8 -6 -21
70 97 168 166 210 224 178 176 189 178 154 125 121 249 246 272 310 281 338 433 498 499 400 523 627 623 595 648 608 538 376 267 325 328 135 103 86 70 73 66 23 -8 -23
78 79 125 232 254 300 272 217 165 119 83 72 147 144 187 201 211 217 288 461 615 700 582 622 654 691 737 629 590 495 612 269 306 221 170 125 112 109 99 89 54 25 8
51 107 195 270 272 274 273 235 235 164 144 120 149 134 153 165 147 157 252 450 581 691 784 801 833 743 483 524 609 586 327 168 173 182 162 143 124 113 123 122 99 37 15
121 112 170 288 327 283 192 129 110 119 137 152 161 188 206 185 200 263 341 481 709 835 954 850 464 466 386 179 44 107 136 152 177 155 155 151 134 142 137 136 128 95 11
277 247 242 254 229 178 117 106 108 117 134 133 166 237 259 289 309 360 408 500 535 506 402 434 301 121 -94 -84 9 85 135 145 152 146 138 135 131 138 139 113 103 105 79
192 186 216 200 176 127 109 111 107 90 112 96 142 229 295 336 390 409 367 352 324 264 149 -11 -26 -35 -4 44 91 97 102 112 117 121 111 104 99 107 119 119 112 93 87
143 190 160 127 86 67 94 86 82 100 118 82 155 246 306 382 428 414 335 311 259 179 74 11 29 75 64 61 78 94 104 108 112 113 124 105 98 94 91 98 96 87 72
123 111 69 79 68 109 97 98 119 118 106 110 183 261 307 329 374 350 284 225 145 94 76 89 93 90 85 93 98 109 120 124 112 105 102 93 95 94 95 93 83 66 65
160 124 37 122 90 88 120 122 126 125 99 96 137 249 343 355 357 311 242 196 182 128 97 86 88 88 90 95 98 107 118 120 115 114 111 112 114 108 97 84 67 39 17
49 64 -7 123 92 113 117 121 143 142 156 208 247 351 404 428 372 366 391 263 143 84 72 92 93 103 109 109 157 159 151 138 121 108 97 90 83 58 66 72 33 15 15
28 69 94 97 145 115 138 148 169 174 151 252 273 317 358 365 390 275 145 -36 -30 36 103 117 110 112 119 163 169 152 129 112 104 99 89 89 51 62 47 44 50 73 73
141 134 97 122 128 130 153 174 207 152 248 214 160 110 96 64 -67 -93 -73 -41 74 112 112 116 122 118 131 130 134 112 100 105 128 135 130 93 108 66 88 73 33 -41 -72
198 139 118 126 143 172 191 186 172 227 168 130 70 74 95 116 113 70 81 114 129 131 124 116 115 129 117 112 92 78 95 143 130 -72 94 100 88 79 69 74 80 76 88
158 109 138 143 156 168 190 238 223 202 263 229 196 190 164 134 119 99 92 112 125 122 121 118 115 112 100 73 69 80 122 34 -39 67 73 85 78 48 24 73 110 65 87
119 176 146 159 196 237 299 326 301 301 302 225 170 113 91 95 93 106 110 116 119 113 112 126 115 84 72 57 62 95 51 -32 12 64 88 63 77 59 47 58 69 74 73
155 128 141 154 189 228 259 238 224 222 125 91 103 78 82 101 116 115 108 102 108 118 117 98 72 58 74 80 68 21 -22 -9 43 107 92 98 53 25 36 23 41 55 39
119 97 143 194 200 219 208 159 131 130 106 93 98 94 96 99 110 108 93 107 120 105 83 60 51 71 90 67 54 -0 -9 -20 -32 -7 70 53 14 -2 16 36 69 26 9
82 120 152 179 152 138 132 144 164 145 113 98 86 87 94 102 96 99 103 100 88 73 69 54 49 48 65 104 1 17 16 21 -22 -27 -15 3 -1 -6 -24 8 4 -16 4
136 173 175 160 155 179 207 171 145 110 99 85 81 82 92 97 103 101 98 94 79 81 73 41 37 38 48 4 14 45 11 15 -16 -27 -19 53 18 36 -12 -6 -4 -10 14
147 164 163 116 149 175 149 131 108 93 92 76 68 78 94 100 96 82 85 89 83 77 63 45 41 19 4 6 40 15 6 -14 -12 -28 -71 -46 -3 36 40 48 37 55 21
159 121 139 117 127 148 128 92 92 98 85 72 76 86 87 97 100 80 84 82 83 69 66 62 36 -29 -25 27 29 31 19 36 16 -22 -65 -49 18 48 45 41 57 44 45

GFSMW_con_3kmhel_006.txt.gz
Helicity
69 56 36 34 73 81 96 79 64 62 66 100 116 102 101 111 119 116 135 180 210 238 272 289 269 274 268 214 227 208 170 154 159 155 145 132 109 68 72 58 21 18 29
76 83 74 1 -17 29 42 40 41 73 111 160 186 155 138 127 126 137 131 181 218 242 293 322 347 360 350 298 268 311 280 239 246 229 215 158 165 156 113 81 44 -19 3
83 23 5 -10 2 -0 33 46 54 93 138 156 158 158 147 150 147 138 166 192 197 185 239 275 329 377 430 400 363 379 397 338 347 320 283 249 182 167 149 131 75 27 17
16 19 23 -2 8 40 49 55 94 145 180 188 175 157 143 139 161 185 183 162 135 148 182 228 276 307 365 411 442 434 475 494 487 432 358 375 316 254 187 126 85 61 11
31 41 32 78 101 127 161 185 213 238 209 166 145 138 141 165 187 156 138 145 143 137 136 164 195 268 354 396 436 451 432 477 507 485 456 441 421 361 261 174 147 27 -55
62 120 131 172 178 197 234 243 239 227 194 133 100 76 80 98 86 103 126 134 127 117 129 135 188 287 362 421 575 757 783 790 832 772 635 691 635 590 541 368 186 96 -13
132 120 188 207 219 238 248 216 182 153 87 51 71 100 103 101 108 127 131 118 126 172 202 255 356 462 564 697 787 834 811 846 764 824 724 590 712 680 583 428 297 162 113
151 186 183 163 200 215 177 125 95 65 45 106 126 126 117 105 94 93 119 162 223 259 291 345 378 409 472 511 565 640 723 700 694 663 321 245 260 159 210 188 158 134 142
163 171 151 176 164 125 110 110 109 125 119 120 106 82 74 55 66 108 162 231 297 319 338 323 286 249 224 270 292 304 177 253 94 -40 -69 -35 73 134 159 166 167 186 145
151 159 134 116 134 142 134 125 136 162 145 102 93 77 64 86 115 154 156 251 308 289 259 230 201 125 70 85 42 34 43 -87 -38 12 23 44 66 74 112 131 151 183 192
111 102 84 78 93 120 142 142 147 134 133 101 72 72 67 67 85 125 169 223 264 271 249 204 178 144 80 84 62 47 46 49 62 73 77 71 67 85 98 113 136 158 186
90 84 77 91 118 137 202 189 166 121 79 56 52 50 55 52 95 178 250 276 333 280 275 274 153 142 140 115 88 74 73 68 69 68 82 79 87 96 101 114 125 143 158
78 68 67 99 117 160 177 178 153 104 63 53 57 36 41 81 166 273 322 350 361 345 307 193 103 67 75 94 89 82 80 74 78 92 103 97 104 102 106 109 116 127 130
35 81 110 121 124 150 186 192 137 83 65 70 92 102 144 139 198 252 320 351 364 258 169 129 105 79 74 78 77 88 104 98 90 83 81 84 89 87 90 93 98 102 115
73 72 71 100 138 193 302 267 92 57 65 108 152 163 145 128 144 158 177 172 141 109 83 81 48 84 92 89 125 137 123 109 95 81 80 74 63 48 70 105 107 112 121
119 116 108 116 199 176 228 91 25 72 110 185 175 150 114 116 119 139 146 105 123 113 88 95 103 95 106 118 130 119 96 90 88 93 76 75 50 56 43 61 73 94 123
186 126 67 144 141 109 89 46 116 138 190 227 262 278 234 160 125 117 108 98 89 90 92 100 117 120 113 119 100 86 95 98 100 90 82 69 67 56 92 71 46 52 52
168 86 96 193 95 80 110 156 205 240 226 206 124 119 118 104 84 87 99 106 108 104 99 100 110 104 90 89 79 74 96 104 96 76 65 69 73 73 43 41 67 84 102
267 167 158 79 65 99 171 190 172 175 154 103 109 104 106 117 106 87 71 80 84 87 100 96 82 76 60 54 54 65 82 81 65 49 62 79 60 27 -16 43 77 76 77
144 76 21 60 101 121 139 148 157 152 125 126 110 137 129 108 84 80 78 83 96 108 92 76 66 49 54 37 51 64 62 46 41 54 58 37 -33 -54 -3 55 80 82 77
31 -36 49 87 87 111 133 131 139 191 162 136 140 126 92 76 87 84 95 102 103 89 80 71 59 56 46 44 48 57 45 37 35 46 54 15 -35 -15 -0 30 44 31 6
26 79 109 99 82 105 176 212 198 171 130 112 122 89 80 84 88 96 96 95 92 88 71 58 56 54 51 33 55 48 34 5 3 17 -4 -9 -2 -11 -14 -35 -30 -30 -47
92 141 123 107 108 134 178 159 128 133 132 126 101 89 80 78 83 100 92 86 91 83 72 64 59 45 39 53 38 36 5 13 4 -14 -14 22 -6 6 -20 10 6 -4 23
121 172 168 147 133 142 130 136 148 156 141 112 106 99 89 77 86 99 102 100 89 92 89 77 62 44 37 30 30 -30 -15 14 -10 -25 -15 -34 -42 -18 -2 13 32 33 28
126 190 197 177 156 156 147 133 142 153 134 130 121 113 108 96 97 108 106 107 103 116 106 100 87 45 18 2 -2 -11 -12 -11 -16 -18 -42 -48 -38 -17 11 30 29 37 43
129 194 189 182 178 183 160 135 145 140 145 142 146 131 111 96 91 103 108 103 110 108 91 72 83 66 -33 -8 2 15 20 12 3 -23 -24 -30 -21 -8 25 31 44 36 52

GFSMW_con_3kmhel_009.txt.gz
Helicity
72 58 55 44 30 47 74 62 71 82 77 98 109 118 112 91 73 78 85 94 109 124 145 164 141 158 201 217 229 220 215 217 197 194 142 129 120 136 147 167 141 116 102
82 68 43 17 -6 24 48 77 93 96 104 110 129 150 142 131 122 118 104 109 117 114 124 129 135 137 158 173 231 270 286 256 273 253 199 179 128 124 146 183 143 116 111
63 43 46 47 75 98 80 78 88 118 148 166 163 154 156 157 137 122 99 107 92 95 96 93 100 108 142 185 218 243 285 324 294 285 273 221 195 163 119 134 148 131 118
74 75 68 98 87 95 124 142 172 201 208 184 161 153 126 118 114 119 122 90 92 104 111 100 97 105 130 151 171 196 227 252 309 351 353 427 339 249 174 174 162 195 139
89 94 111 123 166 200 202 195 193 208 176 129 121 113 121 79 64 65 49 44 64 77 75 91 115 134 140 149 177 211 244 234 254 383 488 512 456 425 306 234 203 248 157
97 130 151 181 215 207 192 188 195 163 137 117 93 60 58 67 106 87 45 42 42 56 88 111 163 193 218 255 301 317 396 451 513 566 607 571 567 518 529 407 370 241 233
118 156 199 201 171 173 155 134 118 108 67 21 26 59 133 158 138 96 37 41 71 88 136 184 252 301 343 372 350 364 440 514 534 581 645 654 770 671 661 455 456 181 160
90 140 99 77 99 113 92 51 19 60 142 182 211 187 145 103 72 32 51 89 99 128 187 225 253 246 252 268 279 266 307 365 380 396 396 330 199 238 234 190 241 203 201
150 112 98 94 102 108 102 111 162 163 163 182 169 156 121 81 41 35 52 77 79 153 223 279 269 225 221 213 174 155 84 37 -96 -43 -106 -108 -53 5 -26 24 26 46 75
146 147 124 100 99 128 151 159 177 189 163 149 144 130 91 37 15 10 39 87 170 244 274 277 254 244 220 196 106 92 61 -15 -43 -54 -72 -72 -57 -43 -20 -24 -7 8 42
108 74 47 46 60 110 151 137 150 156 180 181 169 127 72 14 41 74 112 152 214 232 277 295 289 247 169 82 49 41 40 22 23 13 11 13 9 19 30 56 74 82 99
48 13 14 65 70 81 98 109 152 182 184 182 124 60 44 74 76 115 181 219 243 284 270 248 207 93 3 18 74 69 59 49 42 42 48 48 68 74 85 92 91 102 112
91 55 98 123 130 150 126 170 202 165 107 63 37 34 67 78 108 138 197 238 260 282 257 173 77 64 99 112 108 83 49 48 42 50 56 67 80 82 85 84 87 92 98
52 33 113 162 115 104 117 134 114 79 79 90 134 157 154 97 120 123 122 136 139 147 120 81 92 119 119 98 85 78 62 59 71 72 71 72 72 69 65 71 78 86 97
44 76 73 88 101 113 146 89 79 78 102 136 149 145 101 133 94 70 91 95 101 97 88 84 63 54 57 52 72 71 85 87 80 71 66 69 72 52 59 85 80 85 93
77 -22 -36 70 74 166 155 77 65 114 138 117 154 152 112 70 91 89 96 108 107 106 97 97 93 92 86 123 118 114 86 69 62 61 58 62 49 50 50 54 60 75 96
59 67 42 6 116 106 65 59 101 125 129 144 109 101 96 92 106 126 106 90 80 77 76 80 87 98 104 107 90 82 67 66 62 57 50 45 54 43 53 55 52 57 54
40 -9 -38 55 25 47 75 104 117 125 115 99 104 117 109 106 131 102 78 69 70 68 70 86 102 91 78 78 70 64 54 60 52 39 30 36 32 44 50 52 48 50 55
-111 -66 39 40 71 82 86 83 90 122 117 135 146 128 122 109 94 73 71 68 64 72 91 93 79 71 65 65 56 59 56 47 35 28 27 26 33 28 23 40 29 24 47
44 29 54 78 83 90 95 90 92 124 151 205 158 116 99 85 72 76 68 71 78 90 91 80 77 68 58 46 55 61 56 37 27 17 15 19 22 9 7 -11 10 63 59
60 57 61 89 89 102 112 113 139 150 120 146 103 109 84 77 76 72 74 82 85 89 85 75 68 62 58 53 59 72 65 48 18 10 12 17 11 31 -6 -40 -60 -32 -22
57 50 81 102 125 145 137 114 110 104 111 141 127 103 91 85 77 74 76 86 87 82 73 68 60 63 44 38 49 54 52 32 5 -7 -5 -3 29 -4 -21 -29 -22 2 9
62 74 105 109 141 145 163 141 113 141 125 156 131 113 101 87 89 86 83 90 90 94 91 80 71 58 43 39 32 40 33 24 -11 -12 -2 9 -7 -19 -22 6 14 6 1
75 85 88 101 138 158 186 176 170 150 160 153 134 131 116 105 97 107 106 99 97 106 96 89 81 59 45 37 20 1 -4 6 -21 -15 -17 -19 -21 -33 -10 7 3 -3 -1
70 81 98 132 148 159 159 158 144 137 137 121 133 140 139 122 108 106 96 103 118 118 114 111 91 70 53 31 -21 -16 -10 -11 -7 -9 -16 -18 -18 -17 9 16 1 7 11
97 112 114 136 158 151 151 153 126 122 98 100 124 140 130 124 109 92 85 104 115 123 113 93 92 73 50 -17 -0 8 12 11 8 -25 -13 -5 -8 -3 16 25 13 2 17

GFSMW_con_3kmhel_015.txt.gz
Helicity
143 229 156 117 108 99 110 112 183 172 117 133 127 121 108 127 111 155 199 171 207 173 143 133 144 138 131 120 117 97 84 93 87 101 110 125 121 150 170 175 176 159 161
186 172 204 198 164 139 114 127 129 141 166 156 135 113 128 121 142 104 232 122 190 134 139 172 152 164 148 120 99 86 100 108 107 110 116 150 169 195 219 259 223 174 171
139 164 172 145 117 128 139 157 177 195 191 162 152 150 115 128 141 180 143 145 148 116 129 111 126 132 120 124 106 114 112 125 120 118 145 166 197 169 131 166 297 216 268
154 141 126 110 116 136 157 177 187 167 139 131 126 90 74 100 126 78 143 163 99 108 125 122 130 142 133 95 93 89 154 199 178 159 182 196 193 182 160 121 129 248 220
162 142 114 105 104 110 151 159 132 131 126 97 83 64 107 176 124 130 173 146 151 186 135 143 155 121 68 72 50 97 152 165 187 229 274 360 335 337 325 235 201 171 207
124 102 86 75 115 158 171 136 115 106 80 86 103 123 88 88 104 130 146 176 181 148 138 134 118 45 12 41 120 263 233 191 211 223 261 252 249 348 295 298 293 364 214
118 87 75 110 158 144 124 110 94 79 101 97 83 107 119 135 141 158 182 164 136 124 111 117 60 59 132 164 291 316 272 242 154 173 191 220 249 243 245 258 289 321 329
106 103 99 118 135 142 123 105 64 55 96 150 183 176 181 186 191 193 139 103 89 69 86 56 197 196 239 318 292 213 152 69 81 102 83 110 129 176 233 215 204 188 186
114 110 113 113 127 132 141 122 90 90 124 178 164 167 135 141 152 129 78 86 71 64 157 178 162 265 348 272 226 181 112 25 8 23 31 46 26 10 16 39 59 83 120
91 114 99 125 143 154 135 137 107 127 170 142 121 129 134 156 115 105 123 138 127 126 101 108 208 253 199 145 99 66 3 14 63 74 72 53 37 32 27 0 -20 19 36
76 58 108 134 121 138 168 146 160 141 115 133 173 160 152 147 131 128 160 177 137 127 130 140 115 128 116 83 54 31 48 110 134 130 103 77 64 61 49 52 43 18 4
41 94 135 166 165 203 243 160 151 121 145 151 128 106 120 127 130 230 140 193 133 71 81 130 123 91 68 71 82 93 105 101 125 117 98 81 82 91 76 73 67 78 88
185 187 212 189 156 217 164 145 135 153 130 103 100 105 100 185 178 169 164 122 107 90 82 105 35 21 36 58 85 70 61 48 45 60 77 87 95 97 108 120 107 109 109
132 189 223 140 168 126 145 141 112 130 98 98 88 105 172 188 116 126 126 132 114 105 112 90 74 75 69 66 82 120 98 89 90 92 82 78 75 74 83 79 87 100 103
131 218 155 143 86 122 121 102 133 87 109 119 106 140 170 151 160 175 155 129 118 91 78 76 76 76 74 132 179 133 89 76 69 66 59 58 72 119 81 83 77 77 82
170 141 126 106 115 155 120 125 86 125 106 102 140 114 176 208 148 149 138 114 90 86 76 72 78 91 94 201 168 112 88 62 56 57 56 57 61 53 52 35 31 63 71
107 83 92 100 141 129 91 111 118 78 98 108 108 163 218 170 154 117 122 105 90 75 73 74 91 104 78 186 135 111 83 79 65 61 62 59 62 72 48 48 99 59 49
99 107 131 117 97 96 80 100 100 98 84 94 122 176 187 137 107 124 105 103 83 84 80 88 109 96 85 167 156 120 79 92 72 64 62 63 53 61 94 79 72 49 41
92 121 108 109 95 73 62 84 117 97 90 92 137 175 176 122 147 123 115 87 86 82 91 107 113 86 96 122 124 95 96 91 67 58 53 46 34 30 39 43 27 23 28
106 111 105 66 68 89 93 126 91 83 82 110 147 229 151 176 169 134 96 85 71 87 139 133 99 90 71 88 90 77 83 71 68 52 34 23 22 25 25 22 14 9 16
67 63 73 109 120 149 114 107 62 82 78 96 177 217 239 134 147 109 72 73 73 106 173 124 111 91 108 97 91 118 88 73 63 48 21 27 94 81 37 5 -8 -6 10
91 87 132 153 163 125 120 114 74 102 159 264 268 271 163 161 86 81 66 81 86 118 131 132 129 114 100 117 139 97 58 49 54 -20 -26 -19 -7 -31 -25 -22 -15 -11 -10
113 135 158 160 130 114 94 103 108 147 140 100 79 64 98 61 61 83 79 91 84 124 127 128 126 109 127 101 96 72 26 -11 -30 -27 -29 8 -22 -14 -11 -33 -14 24 27
131 148 146 142 112 89 76 94 205 130 118 98 96 95 60 86 69 74 81 105 110 114 115 132 126 124 110 98 92 2 -26 -5 -17 -16 7 -17 -18 6 23 5 8 12 6
134 138 103 85 94 91 126 158 142 152 86 85 80 42 47 57 78 65 109 97 123 145 130 132 123 124 113 87 -13 -14 -12 -2 0 22 -5 -16 -8 8 19 17 14 17 11
95 92 87 103 123 147 158 110 143 113 80 67 33 48 58 79 79 70 72 124 118 138 147 161 128 114 100 31 -9 8 13 4 15 9 -14 -3 7 17 23 21 20 1 3